Regional Weather Roundup
Issued by NWS

Home | Current Version | Previous Version | Text Only | Print | Product List | Glossary Off
Versions: 1 2 3 4 5 6 7 8 9 10 11 12 13 14 15 16 17 18 19 20 21 22 23 24 25 26 27 28 29 30 31 32 33 34 35 36 37 38 39 40 41 42 43 44 45 46 47 48 49 50

000
ASUS45 KBOU 190707
RWRCO

WEATHER ROUNDUP FOR COLORADO
NATIONAL WEATHER SERVICE DENVER/BOULDER CO
100 AM MDT SUN OCT 19 2014

NOTE: "FAIR" INDICATES FEW OR NO CLOUDS BELOW 12000 FEET WITH NO
SIGNIFICANT WEATHER AND/OR OBSTRUCTIONS TO VISIBILITY.

COZ001>005-013-030-031-190800-
...NORTHWEST COLORADO...

CITY           SKY/WX    TMP DP  RH WIND       PRES   REMARKS
CRAIG          CLEAR     33  28  81 CALM      30.17S
HAYDEN         CLEAR     45  28  53 E9        30.17S
MEEKER         PTCLDY    44  32  62 E5        30.18S
MOUNT WERNER   NOT AVBL
STEAMBOAT SPGS CLEAR     40  31  69 E3        30.19S
WALDEN         PTCLDY    32  25  74 SE6       30.23S WCI  26
$$

COZ006>008-011-190800-
...WEST CENTRAL VALLEYS...

CITY           SKY/WX    TMP DP  RH WIND       PRES   REMARKS
GRAND JUNCTION MOCLDY    51  33  50 CALM      30.08S
MONTROSE       CLOUDY    54  38  54 SE6       30.15S
EAGLE          MOCLDY    43  34  70 CALM      30.22S
RIFLE          MOCLDY    51  37  58 CALM      30.13S
DELTA          CLOUDY    58  38  47 E5        30.12S
NUCLA          MOCLDY    54  37  54 E14       30.17F
$$

COZ017>023-064>068-190800-
...SOUTHWEST COLORADO...

CITY           SKY/WX    TMP DP  RH WIND       PRES   REMARKS
DURANGO        CLOUDY    46  40  79 CALM      30.19S
CORTEZ         PTCLDY    46  38  73 CALM      30.14S
PAGOSA SPRINGS CLOUDY    47  39  74 CALM      30.26S
TELLURIDE      CLOUDY    48  36  62 CALM      30.31S
WOLF CREEK PAS CLOUDY    34  30  86 SW16      30.43S WCI  23
$$

COZ009-010-012-014-032>034-037-058>063-190800-
...CENTRAL COLORADO...

CITY           SKY/WX    TMP DP  RH WIND       PRES   REMARKS
ASPEN          CLOUDY   N/A N/A N/A S6        30.23F
BUENA VISTA    MOCLDY    46  32  57 NW7       30.25R
COPPER MTN     CLEAR     37  28  70 S7        30.44S
BERTHOUD PASS  FAIR      30  28  93 N9        30.45F WCI  22
COTTONWOOD PAS CLOUDY    48  28  46 CALM      30.33S
GUNNISON       CLOUDY    48  30  49 CALM      30.26S
KREMMLING      CLEAR     34  28  80 CALM        N/A
LEADVILLE      PTCLDY    34  25  69 NE8       30.32F WCI  27
MONARCH PASS   CLOUDY    36  28  75 SW15      30.53S
SALIDA         CLOUDY    53  35  50 N9        30.29S
SUNLIGHT       CLOUDY    43  27  52 CALM      30.39S
WILKERSON PASS NOT AVBL
$$

COZ069>075-190800-
...SAN LUIS VALLEY/SANGRE DE CRISTO MOUNTAINS...

CITY           SKY/WX    TMP DP  RH WIND       PRES   REMARKS
ALAMOSA        CLOUDY    48  40  73 E5        30.22S
LA VETA PASS   CLOUDY    39  36  87 S9G17     30.32S
SAGUACHE       RAIN      50  37  62 CALM      30.25S
$$

COZ035-036-038>040-190800-
...NORTHERN COLORADO FRONT RANGE...

CITY           SKY/WX    TMP DP  RH WIND       PRES   REMARKS
DENVER INTL AP PTCLDY    49  38  65 SW6       30.07S
DMNS CITY PARK   N/A     46  39  78 S3        30.07R
AURORA         PTCLDY    49  38  65 S7        30.08S
FRONT RANGE AP CLEAR     46  39  76 SW7       30.08S
ERIE MUNI ARPT CLEAR     42  37  84 SW3       30.07S
BOULDER MUN AP CLEAR     46  36  66 S5        30.06S
CENTENNIAL     PTCLDY    44  37  76 S3        30.09S
BROOMFIELD     CLEAR     54  36  50 N5        30.08S
FORT COLLINS   PTCLDY    48  43  81 CALM      30.07S
LONGMONT       PTCLDY    44  37  75 W6        30.08R
$$

COZ041-046-047-076>085-087-088-190800-
...PIKES PEAK/PALMER DIVIDE AND SOUTHERN FOOTHILLS...

CITY           SKY/WX    TMP DP  RH WIND       PRES   REMARKS
COLO. SPRINGS  PTCLDY    44  37  76 N7        30.11F
A. F. ACADEMY  CLEAR     38  35  87 N10       30.13S
ELLICOTT       NOT AVBL
FALCON         CLEAR     41  35  77 W8        30.14F
FORT CARSON    CLEAR     44  38  77 N12       30.09F
LIMON          CLEAR     36  35  96 N3        30.08F
MONUMENT HILL  CLEAR     41  34  75 W9        30.13S
TRINIDAD       PTCLDY    51  43  74 SW10      30.10F
$$

COZ042>045-048>051-090-091-190800-
...NORTHEAST COLORADO...

CITY           SKY/WX    TMP DP  RH WIND       PRES   REMARKS
GREELEY ARPT   PTCLDY    43  32  65 N6        30.05S
AKRON          CLEAR     46  42  86 S12       30.02F
BURLINGTON     CLEAR     48  40  73 S12       30.05F
WRAY           CLEAR     47  42  81 S6        30.04S
STERLING       CLEAR     41  37  87 NW5       30.01S
HOLYOKE        CLEAR     43  37  81 S7        30.03S
FORT MORGAN    CLEAR     45  38  76 CALM      30.03S
$$

COZ086-089-092>099-190800-
...SOUTHEAST COLORADO...

CITY           SKY/WX    TMP DP  RH WIND       PRES   REMARKS
PUEBLO         CLEAR     47  41  80 SW3       30.06F
LA JUNTA       CLEAR     50  44  80 SW6       30.03F
LAMAR          CLEAR     53  45  74 S14       30.02S
SPRINGFIELD      N/A     49  44  83 S16       30.09F
$$


USA.gov is the U.S. government's official web portal to all federal, state and local government web resources and services.